Flag for Germany Weather past 2 weeks in Ludwigsfelde, Brandenburg, Germany

Now
42 °F

Fog.


Feels Like: 40 °F
Forecast: 49 / 58 °F
Wind: 3 mph from Southeast

Location: Potsdam

Current Time: Oct 25, 2014 at 5:21:02 AM

Latest Report: Oct 25, 2014 at 5:00 AM


Visibility: 3 mi

Pressure: 30.15 "Hg

Humidity: 94%

Dew point: 40 °F

Location of LudwigsfeldeLocation

Historic Weather in Ludwigsfelde — Graph

°F

Ludwigsfelde temperature yesterday

Maximum temperature yesterday: 50 °F (at 12:00 AM)
Minimum temperature yesterday: 45 °F (at 6:00 PM)
Average temperature yesterday: 47 °F

Past Weeks' High & Low Weather Summary

 TemperatureHumidityPressure
High69 °F (Oct 19, 3:00 PM)100% (Oct 17, 3:00 AM)30.28 "Hg (Oct 17, 3:00 AM)
Low42 °F (Oct 25, 4:00 AM)66% (Oct 15, 4:00 PM)29.44 "Hg (Oct 21, 10:00 PM)
Average55 °F92%29.91 "Hg
* Reported Oct 10 4:00 AM — Oct 25 4:00 AM, Ludwigsfelde, Weather by CustomWeather, © 2014

Note: Actual official high and low records may vary slightly from our data, if they occured in-between our weather recording intervals... More about our weather records

Advertising

Ludwigsfelde weather history for previous 24 hours

 ConditionsComfort  
Time TempWeatherWind HumidityBarometerVisibility
4:00 AM
Oct 25
42 °FFog.5 mph95%30.15 "Hg2 mi
3:00 AM43 °FFog.5 mph95%30.17 "Hg3 mi
2:00 AM43 °FFog.5 mph95%30.18 "Hg4 mi
1:00 AM44 °FFog.6 mph94%30.19 "Hg4 mi
12:00 AM44 °FLow clouds.3 mph93%30.20 "Hg5 mi
11:00 PM
Oct 24
45 °FLow clouds.3 mph93%30.20 "Hg5 mi
10:00 PM45 °FLow clouds.3 mph91%30.21 "Hg5 mi
9:00 PM45 °FLow clouds.5 mph91%30.20 "Hg5 mi
8:00 PM45 °FLow clouds.6 mph91%30.21 "Hg5 mi
7:00 PM45 °FLow clouds.5 mph93%30.22 "Hg6 mi
6:00 PM45 °FFog.5 mph93%30.22 "Hg4 mi
5:00 PM46 °FFog.2 mph93%30.23 "Hg3 mi
4:00 PM47 °FFog.5 mph91%30.23 "Hg2 mi
3:00 PM48 °FFog.3 mph91%30.24 "Hg2 mi
2:00 PM49 °FFog.3 mph90%30.26 "Hg3 mi
1:00 PM49 °FFog.5 mph90%30.27 "Hg3 mi
12:00 PM48 °FFog.3 mph94%30.28 "Hg3 mi
11:00 AM47 °FFog.3 mph94%30.28 "Hg2 mi
10:00 AM47 °FFog.3 mph94%30.26 "Hg2 mi
9:00 AM47 °FFog.5 mph95%30.27 "Hg3 mi
8:00 AM46 °FFog.5 mph96%30.26 "Hg3 mi
7:00 AM47 °FLow clouds.5 mph96%30.25 "Hg5 mi
6:00 AM47 °FLow clouds.3 mph95%30.25 "Hg5 mi
5:00 AM47 °FLow clouds.5 mph94%30.24 "Hg6 mi
Weather by CustomWeather, © 2014

See weather overviewHow to use our weather pages